EW2973 Weather Reports


Display with metric or nautical units.
time (UTC)temp
F
wind
direction
speed
MPH
gust
MPH
rain 1hr
in
rain 24hr
in
rain mn
in
humidity
%
barometer
mb
20260502163044 45 337 0.0 6.0 0.00 0.01 0.00 56 1018.1
20260502161525 45 335 2.0 5.0 0.00 0.01 0.00 59 1018.4
20260502151526 45 344 2.0 8.0 0.00 0.06 0.00 59 1018.4
20260502123022 35 313 1.0 4.0 0.00 0.11 0.00 89 1017.9
20260502121526 34 5 1.0 2.0 0.00 0.11 0.00 94 1017.8
20260502114525 32 151 0.0 0.0 0.00 0.11 0.00 94 1017.5
20260502113027 31 151 0.0 0.0 0.00 0.11 0.00 94 1017.5
20260502111526 31 151 0.0 0.0 0.00 0.11 0.00 94 1017.5
20260502110024 31 151 0.0 0.0 0.00 0.11 0.00 93 1017.4
20260502104522 31 151 0.0 0.0 0.00 0.11 0.00 93 1017.4
20260502103018 31 151 0.0 0.0 0.00 0.11 0.00 93 1017.5
20260502101518 31 151 0.0 0.0 0.00 0.11 0.00 93 1017.6
20260502091526 32 151 0.0 0.0 0.00 0.11 0.00 93 1017.4
20260502071521 34 151 0.0 0.0 0.00 0.11 0.00 93 1017.2
20260502070020 34 151 0.0 0.0 0.00 0.11 0.00 93 1017.4
20260502064531 35 151 0.0 0.0 0.00 0.11 0.00 1017.6
20260502063010 35 151 0.0 0.0 0.00 0.11 0.00 93 1017.5
20260502061529 35 151 0.0 0.0 0.00 0.11 0.00 93 1017.6
20260502060029 35 151 0.0 0.0 0.00 0.11 0.00 92 1017.6
20260502054524 36 95 0.0 0.0 0.00 0.11 0.00 92 1017.8
20260502053022 36 23 0.0 0.0 0.00 0.11 0.00 92 1017.8
20260502051526 36 23 0.0 0.0 0.00 0.11 0.00 1017.6
20260502050016 37 23 0.0 0.0 0.00 0.11 0.00 1017.6
20260502044526 37 23 0.0 0.0 0.00 0.11 0.00 92 1017.6
20260502043026 37 23 0.0 0.0 0.00 0.11 0.00 92 1017.7
20260502041525 37 23 0.0 0.0 0.00 0.11 0.00 91 1017.6
20260502040021 37 18 0.0 0.0 0.00 0.11 0.00 91 1017.6
20260502034534 38 18 0.0 0.0 0.00 0.11 0.11 1017.5
20260502033019 38 18 0.0 0.0 0.00 0.11 0.11 90 1017.6
20260502031526 39 18 0.0 0.0 0.00 0.11 0.11 90 1017.7
20260502030028 40 18 0.0 0.0 0.00 0.11 0.11 90 1017.9
20260502024527 40 18 0.0 0.0 0.00 0.11 0.11 90 1017.9
20260502023026 40 18 0.0 0.0 0.00 0.11 0.11 90 1017.8
20260502021524 40 18 0.0 0.0 0.00 0.11 0.11 88 1017.6
20260502020020 41 18 0.0 0.0 0.00 0.11 0.11 87 1017.4
20260502014544 41 18 0.0 0.0 0.01 0.11 0.11 87 1017.3
20260502013028 41 18 0.0 0.0 0.01 0.11 0.11 87 1017.1
20260502011505 42 24 0.0 0.0 0.01 0.11 0.11 85 1016.5
20260502010008 43 24 0.0 4.0 0.01 0.11 0.11 80 1016.4
20260502004504 45 5 5.0 10.0 0.00 0.10 0.10 75 1016.6
20260502003005 45 13 1.0 4.0 0.00 0.10 0.10 74 1016.2
20260502001512 46 351 0.0 0.0 0.00 0.10 0.10 74 1016.1
20260502000017 46 16 0.0 1.0 0.00 0.10 0.10 73 1015.7
20260501234504 46 360 0.0 3.0 0.00 0.10 0.10 71 1015.5
20260501233004 46 321 1.0 2.0 0.00 0.10 0.10 70 1015.3
20260501231515 46 342 0.0 2.0 0.00 0.10 0.10 71 1015.2
20260501230003 46 319 0.0 3.0 0.00 0.10 0.10 71 1015.3
20260501224505 46 360 1.0 4.0 0.00 0.10 0.10 73 1015.2
20260501223004 46 352 2.0 4.0 0.00 0.10 0.10 73 1015.3
20260501221514 46 315 0.0 3.0 0.00 0.10 0.10 75 1015.4
20260501220011 45 9 2.0 4.0 0.00 0.10 0.10 80 1015.6
20260501214504 44 346 1.0 5.0 0.00 0.10 0.10 82 1015.6
20260501213004 45 343 3.0 9.0 0.00 0.10 0.10 78 1015.4
20260501211504 46 315 2.0 7.0 0.00 0.10 0.10 75 1014.9
20260501210007 46 9 2.0 5.0 0.00 0.10 0.10 76 1014.6
20260501204509 47 323 2.0 5.0 0.00 0.10 0.10 76 1014.3
20260501203008 46 360 2.0 4.0 0.00 0.10 0.10 76 1014.4
20260501201506 46 296 2.0 4.0 0.00 0.10 0.10 76 1014.5
20260501200004 46 14 3.0 7.0 0.00 0.10 0.10 77 1014.4
20260501194506 46 319 2.0 8.0 0.00 0.10 0.10 78 1014.4
20260501193010 47 24 1.0 8.0 0.00 0.10 0.10 76 1014.2
20260501191507 48 334 1.0 8.0 0.00 0.10 0.10 75 1013.9
20260501190015 50 5 3.0 8.0 0.00 0.10 0.10 74 1013.6
20260501184506 53 360 2.0 6.0 0.00 0.10 0.10 73 1013.3
20260501183011 51 274 1.0 10.0 0.00 0.10 0.10 77 1012.8
20260501181512 52 204 5.0 13.0 0.00 0.10 0.10 77 1012.3
20260501180007 49 288 4.0 11.0 0.00 0.10 0.10 84 1012.5
20260501174509 48 240 5.0 12.0 0.00 0.10 0.10 83 1012.5
20260501173006 48 258 2.0 8.0 0.00 0.10 0.10 87 1012.4
20260501171512 48 238 2.0 7.0 0.00 0.10 0.10 87 1012.3
20260501170008 48 174 2.0 10.0 0.01 0.10 0.10 87 1012.2
20260501164512 47 238 3.0 5.0 0.02 0.10 0.10 90 1012.1